| time (UTC) | temp F | wind direction | speed knots | gust knots | rain 1hr in | rain 24hr in | rain mn in | humidity % | barometer mb |
| 20260504042017 | 41 | 0 | 0.0 | 0.0 | 0.00 | 0.00 | 0.00 | 73 | 1013.6 |
| 20260504041535 | 41 | 0 | 0.0 | 0.0 | 0.00 | 0.00 | 0.00 | 73 | 1013.6 |
| 20260504041016 | 41 | 0 | 0.0 | 0.0 | 0.00 | 0.00 | 0.00 | 73 | 1013.7 |
| 20260504040519 | 41 | 0 | 0.0 | 0.0 | 0.00 | 0.00 | 0.00 | 73 | 1013.5 |
| 20260504040035 | 41 | 0 | 0.0 | 0.0 | 0.00 | 0.00 | 0.00 | 73 | 1013.6 |
| 20260504035521 | 41 | 0 | 0.0 | 0.0 | 0.00 | 0.00 | 0.00 | 74 | 1013.5 |
| 20260504035021 | 41 | 0 | 0.0 | 0.0 | 0.00 | 0.00 | 0.00 | 75 | 1013.6 |
| 20260504034533 | 41 | 0 | 0.0 | 0.0 | 0.00 | 0.00 | 0.00 | 76 | 1013.6 |
| 20260504034020 | 40 | 0 | 0.0 | 0.0 | 0.00 | 0.00 | 0.00 | 77 | 1013.6 |
| 20260504033519 | 40 | 0 | 0.0 | 0.0 | 0.00 | 0.00 | 0.00 | 77 | 1013.7 |
| 20260504033050 | 40 | 0 | 0.0 | 0.0 | 0.00 | 0.00 | 0.00 | 75 | 1013.7 |
| 20260504032519 | 40 | 0 | 0.0 | 0.0 | 0.00 | 0.00 | 0.00 | 74 | 1013.8 |
| 20260504032017 | 41 | 0 | 0.0 | 0.0 | 0.00 | 0.00 | 0.00 | 74 | 1013.7 |
| 20260504031549 | 41 | 0 | 0.0 | 0.0 | 0.00 | 0.00 | 0.00 | 73 | 1013.7 |
| 20260504031018 | 41 | 0 | 0.0 | 0.0 | 0.00 | 0.00 | 0.00 | 75 | 1013.7 |
| 20260504030519 | 41 | 0 | 0.0 | 0.0 | 0.00 | 0.00 | 0.00 | 75 | 1013.7 |
| 20260504030049 | 41 | 0 | 0.0 | 0.0 | 0.00 | 0.00 | 0.00 | 73 | 1013.8 |
| 20260504025520 | 41 | 0 | 0.0 | 0.0 | 0.00 | 0.00 | 0.00 | 74 | 1013.8 |
| 20260504025019 | 41 | 0 | 0.0 | 0.0 | 0.00 | 0.00 | 0.00 | 74 | 1013.8 |
| 20260504024543 | 41 | 0 | 0.0 | 0.0 | 0.00 | 0.00 | 0.00 | 74 | 1013.8 |
| 20260504024019 | 42 | 0 | 0.0 | 0.0 | 0.00 | 0.00 | 0.00 | 73 | 1013.8 |
| 20260504023519 | 42 | 0 | 0.0 | 0.0 | 0.00 | 0.00 | 0.00 | 72 | 1013.8 |
| 20260504023037 | 42 | 0 | 0.0 | 0.0 | 0.00 | 0.00 | 0.00 | 72 | 1013.9 |
| 20260504022523 | 43 | 0 | 0.0 | 0.0 | 0.00 | 0.00 | 0.00 | 71 | 1013.9 |
| 20260504022020 | 43 | 0 | 0.0 | 0.0 | 0.00 | 0.00 | 0.00 | 70 | 1014.0 |
| 20260504021533 | 44 | 0 | 0.0 | 0.0 | 0.00 | 0.00 | 0.00 | 68 | 1014.1 |
| 20260504021019 | 44 | 0 | 0.0 | 0.0 | 0.00 | 0.00 | 0.00 | 68 | 1014.1 |
| 20260504020520 | 44 | 0 | 0.0 | 0.0 | 0.00 | 0.00 | 0.00 | 67 | 1014.1 |
| 20260504020039 | 44 | 0 | 0.0 | 0.0 | 0.00 | 0.00 | 0.00 | 67 | 1014.0 |
| 20260504015520 | 44 | 0 | 0.0 | 0.0 | 0.00 | 0.00 | 0.00 | 67 | 1014.0 |
| 20260504015021 | 44 | 0 | 0.0 | 0.0 | 0.00 | 0.00 | 0.00 | 66 | 1013.9 |
| 20260504014540 | 45 | 0 | 0.0 | 0.0 | 0.00 | 0.00 | 0.00 | 64 | 1013.9 |
| 20260504014020 | 45 | 0 | 0.0 | 0.0 | 0.00 | 0.00 | 0.00 | 63 | 1013.9 |
| 20260504013522 | 46 | 0 | 0.0 | 0.0 | 0.00 | 0.00 | 0.00 | 62 | 1013.9 |
| 20260504013040 | 46 | 0 | 0.0 | 0.0 | 0.00 | 0.00 | 0.00 | 62 | 1013.9 |
| 20260504012521 | 47 | 0 | 0.0 | 0.0 | 0.00 | 0.00 | 0.00 | 60 | 1013.8 |
| 20260504012025 | 47 | 0 | 0.0 | 0.0 | 0.00 | 0.00 | 0.00 | 60 | 1013.7 |
| 20260504011538 | 47 | 0 | 0.0 | 0.0 | 0.00 | 0.00 | 0.00 | 58 | 1013.7 |
| 20260504011023 | 48 | 0 | 0.0 | 0.0 | 0.00 | 0.00 | 0.00 | 56 | 1013.7 |
| 20260504010519 | 48 | 0 | 0.0 | 0.0 | 0.00 | 0.00 | 0.00 | 57 | 1013.7 |
| 20260504010037 | 48 | 0 | 0.0 | 0.0 | 0.00 | 0.00 | 0.00 | 57 | 1013.7 |
| 20260504005517 | 49 | 0 | 0.0 | 0.0 | 0.00 | 0.00 | 0.00 | 55 | 1013.7 |
| 20260504005020 | 49 | 0 | 0.0 | 0.0 | 0.00 | 0.00 | 0.00 | 54 | 1013.7 |
| 20260504004535 | 50 | 0 | 0.0 | 0.0 | 0.00 | 0.00 | 0.00 | 53 | 1013.7 |
| 20260504004021 | 51 | 0 | 0.0 | 1.7 | 0.00 | 0.00 | 0.00 | 51 | 1013.7 |
| 20260504003517 | 51 | 0 | 0.0 | 1.7 | 0.00 | 0.00 | 0.00 | 50 | 1013.7 |
| 20260504003043 | 52 | 0 | 0.0 | 0.9 | 0.00 | 0.00 | 0.00 | 49 | 1013.7 |
| 20260504002519 | 52 | 0 | 0.0 | 0.9 | 0.00 | 0.00 | 0.00 | 48 | 1013.6 |
| 20260504002021 | 52 | 0 | 0.0 | 0.9 | 0.00 | 0.00 | 0.00 | 48 | 1013.7 |
| 20260504001539 | 53 | 0 | 0.0 | 1.7 | 0.00 | 0.00 | 0.00 | 46 | 1013.6 |
| 20260504001019 | 53 | 0 | 0.0 | 1.7 | 0.00 | 0.00 | 0.00 | 45 | 1013.6 |
| 20260504000519 | 54 | 229 | 0.0 | 1.7 | 0.00 | 0.00 | 0.00 | 45 | 1013.6 |
| 20260504000051 | 54 | 0 | 0.0 | 1.7 | 0.00 | 0.00 | 0.00 | 44 | 1013.6 |
| 20260503235518 | 54 | 0 | 0.0 | 5.2 | 0.00 | 0.00 | 0.00 | 44 | 1013.7 |
| 20260503235020 | 55 | 155 | 0.0 | 5.2 | 0.00 | 0.00 | 0.00 | 43 | 1013.6 |
| 20260503234538 | 55 | 236 | 0.9 | 5.2 | 0.00 | 0.00 | 0.00 | 42 | 1013.6 |
| 20260503234020 | 55 | 224 | 0.9 | 4.3 | 0.00 | 0.00 | 0.00 | 42 | 1013.6 |
| 20260503233521 | 55 | 263 | 0.9 | 5.2 | 0.00 | 0.00 | 0.00 | 41 | 1013.7 |
| 20260503233039 | 56 | 254 | 1.7 | 5.2 | 0.00 | 0.00 | 0.00 | 40 | 1013.7 |
| 20260503232523 | 56 | 308 | 0.0 | 5.2 | 0.00 | 0.00 | 0.00 | 41 | 1013.7 |
| 20260503232017 | 56 | 303 | 1.7 | 5.2 | 0.00 | 0.00 | 0.00 | 40 | 1013.7 |
| 20260503231539 | 57 | 295 | 2.6 | 6.1 | 0.00 | 0.00 | 0.00 | 39 | 1013.7 |
| 20260503231019 | 57 | 278 | 1.7 | 6.1 | 0.00 | 0.00 | 0.00 | 39 | 1013.7 |
| 20260503230519 | 57 | 253 | 1.7 | 9.6 | 0.00 | 0.00 | 0.00 | 40 | 1013.8 |
| 20260503230040 | 57 | 228 | 1.7 | 9.6 | 0.00 | 0.00 | 0.00 | 39 | 1013.7 |
| 20260503225521 | 58 | 117 | 1.7 | 9.6 | 0.00 | 0.00 | 0.00 | 39 | 1013.8 |
| 20260503225023 | 58 | 269 | 1.7 | 7.8 | 0.00 | 0.00 | 0.00 | 38 | 1013.8 |
| 20260503224538 | 58 | 323 | 3.5 | 8.7 | 0.00 | 0.00 | 0.00 | 38 | 1013.8 |
| 20260503224020 | 58 | 349 | 2.6 | 9.6 | 0.00 | 0.00 | 0.00 | 39 | 1013.8 |
| 20260503223517 | 58 | 294 | 1.7 | 9.6 | 0.00 | 0.00 | 0.00 | 37 | 1013.9 |
| 20260503223038 | 58 | 316 | 3.5 | 9.6 | 0.00 | 0.00 | 0.00 | 36 | 1013.9 |
| 20260503222522 | 59 | 257 | 2.6 | 7.8 | 0.00 | 0.00 | 0.00 | 38 | 1013.8 |
| 20260503222017 | 59 | 212 | 1.7 | 7.0 | 0.00 | 0.00 | 0.00 | 39 | 1013.9 |
| 20260503221538 | 58 | 78 | 0.9 | 11.3 | 0.00 | 0.00 | 0.00 | 40 | 1013.9 |
| 20260503221019 | 58 | 296 | 1.7 | 11.3 | 0.00 | 0.00 | 0.00 | 37 | 1014.0 |
| 20260503220519 | 58 | 180 | 4.3 | 13.0 | 0.00 | 0.00 | 0.00 | 38 | 1013.9 |
| 20260503220046 | 59 | 240 | 3.5 | 13.0 | 0.00 | 0.00 | 0.00 | 38 | 1013.9 |
| 20260503215519 | 60 | 135 | 3.5 | 7.8 | 0.00 | 0.00 | 0.00 | 38 | 1013.8 |
| 20260503215021 | 60 | 214 | 0.9 | 6.1 | 0.00 | 0.00 | 0.00 | 38 | 1013.8 |
| 20260503214540 | 59 | 189 | 1.7 | 4.3 | 0.00 | 0.00 | 0.00 | 40 | 1013.8 |
| 20260503214020 | 59 | 321 | 0.9 | 7.0 | 0.00 | 0.00 | 0.00 | 38 | 1013.8 |
| 20260503213520 | 58 | 174 | 1.7 | 7.0 | 0.00 | 0.00 | 0.00 | 39 | 1013.8 |
| 20260503213039 | 59 | 293 | 2.6 | 9.6 | 0.00 | 0.00 | 0.00 | 37 | 1013.8 |
| 20260503212518 | 58 | 276 | 3.5 | 9.6 | 0.00 | 0.00 | 0.00 | 36 | 1013.8 |
| 20260503212018 | 58 | 122 | 1.7 | 7.0 | 0.00 | 0.00 | 0.00 | 38 | 1013.8 |
| 20260503211535 | 58 | 306 | 3.5 | 12.2 | 0.00 | 0.00 | 0.00 | 37 | 1013.7 |
| 20260503211019 | 59 | 283 | 2.6 | 12.2 | 0.00 | 0.00 | 0.00 | 38 | 1013.9 |
| 20260503210517 | 58 | 309 | 3.5 | 8.7 | 0.00 | 0.00 | 0.00 | 37 | 1013.7 |
| 20260503210037 | 58 | 221 | 2.6 | 9.6 | 0.00 | 0.00 | 0.00 | 37 | 1013.8 |
| 20260503205517 | 58 | 235 | 3.5 | 9.6 | 0.00 | 0.00 | 0.00 | 37 | 1014.0 |
| 20260503205017 | 58 | 278 | 2.6 | 13.0 | 0.00 | 0.00 | 0.00 | 41 | 1014.1 |
| 20260503204535 | 58 | 104 | 1.7 | 13.0 | 0.00 | 0.00 | 0.00 | 38 | 1014.2 |
| 20260503204017 | 58 | 268 | 3.5 | 13.0 | 0.00 | 0.00 | 0.00 | 37 | 1014.2 |
| 20260503203521 | 58 | 128 | 2.6 | 7.8 | 0.00 | 0.00 | 0.00 | 39 | 1014.1 |
| 20260503203041 | 58 | 248 | 2.6 | 13.0 | 0.00 | 0.00 | 0.00 | 38 | 1014.1 |
| 20260503202519 | 58 | 302 | 1.7 | 13.0 | 0.00 | 0.00 | 0.00 | 39 | 1014.2 |
| 20260503202019 | 58 | 286 | 6.1 | 13.0 | 0.00 | 0.00 | 0.00 | 37 | 1014.2 |
| 20260503201544 | 58 | 193 | 1.7 | 7.8 | 0.00 | 0.00 | 0.00 | 40 | 1014.2 |
| 20260503201019 | 58 | 94 | 3.5 | 7.8 | 0.00 | 0.00 | 0.00 | 38 | 1014.4 |
| 20260503200519 | 58 | 294 | 2.6 | 7.0 | 0.00 | 0.00 | 0.00 | 41 | 1014.2 |
| 20260503200039 | 58 | 330 | 2.6 | 9.6 | 0.00 | 0.00 | 0.00 | 39 | 1014.4 |
| 20260503195520 | 58 | 326 | 4.3 | 9.6 | 0.00 | 0.00 | 0.00 | 39 | 1014.5 |
| 20260503195018 | 57 | 349 | 2.6 | 9.6 | 0.00 | 0.00 | 0.00 | 40 | 1014.6 |
| 20260503194538 | 57 | 330 | 2.6 | 9.6 | 0.00 | 0.00 | 0.00 | 38 | 1014.6 |
| 20260503194019 | 57 | 131 | 3.5 | 9.6 | 0.00 | 0.00 | 0.00 | 40 | 1014.7 |
| 20260503193521 | 57 | 303 | 2.6 | 7.0 | 0.00 | 0.00 | 0.00 | 39 | 1014.7 |
| 20260503193036 | 57 | 340 | 3.5 | 9.6 | 0.00 | 0.00 | 0.00 | 41 | 1014.8 |
| 20260503192518 | 56 | 346 | 3.5 | 9.6 | 0.00 | 0.00 | 0.00 | 44 | 1014.9 |
| 20260503192019 | 56 | 301 | 4.3 | 9.6 | 0.00 | 0.00 | 0.00 | 39 | 1015.1 |
| 20260503191535 | 56 | 260 | 2.6 | 8.7 | 0.00 | 0.00 | 0.00 | 40 | 1015.2 |
| 20260503191021 | 57 | 283 | 1.7 | 13.0 | 0.00 | 0.00 | 0.00 | 41 | 1015.1 |
| 20260503190518 | 57 | 310 | 3.5 | 13.0 | 0.00 | 0.00 | 0.00 | 38 | 1015.2 |
| 20260503190034 | 57 | 277 | 4.3 | 13.0 | 0.00 | 0.00 | 0.00 | 38 | 1015.3 |
| 20260503185518 | 58 | 297 | 1.7 | 7.8 | 0.00 | 0.00 | 0.00 | 43 | 1015.4 |
| 20260503185018 | 57 | 243 | 1.7 | 8.7 | 0.00 | 0.00 | 0.00 | 43 | 1015.4 |
| 20260503184600 | 58 | 301 | 2.6 | 12.2 | 0.00 | 0.00 | 0.00 | 42 | 1015.5 |
| 20260503184018 | 57 | 210 | 3.5 | 12.2 | 0.00 | 0.00 | 0.00 | 41 | 1015.6 |
| 20260503183518 | 58 | 221 | 2.6 | 8.7 | 0.00 | 0.00 | 0.00 | 40 | 1015.6 |
| 20260503183040 | 58 | 24 | 1.7 | 9.6 | 0.00 | 0.00 | 0.00 | 39 | 1015.5 |
| 20260503182519 | 57 | 314 | 3.5 | 9.6 | 0.00 | 0.00 | 0.00 | 39 | 1015.6 |
| 20260503182018 | 57 | 326 | 3.5 | 9.6 | 0.00 | 0.00 | 0.00 | 39 | 1015.7 |
| 20260503181536 | 57 | 210 | 3.5 | 9.6 | 0.00 | 0.00 | 0.00 | 43 | 1015.6 |
| 20260503181022 | 56 | 333 | 2.6 | 9.6 | 0.00 | 0.00 | 0.00 | 41 | 1015.7 |
| 20260503180519 | 56 | 329 | 3.5 | 9.6 | 0.00 | 0.00 | 0.00 | 43 | 1015.8 |
| 20260503180037 | 55 | 330 | 1.7 | 10.4 | 0.00 | 0.00 | 0.00 | 42 | 1015.8 |
| 20260503175519 | 55 | 150 | 3.5 | 10.4 | 0.00 | 0.00 | 0.00 | 41 | 1015.9 |
| 20260503175018 | 54 | 330 | 4.3 | 10.4 | 0.00 | 0.00 | 0.00 | 40 | 1016.0 |
| 20260503174534 | 54 | 219 | 2.6 | 10.4 | 0.00 | 0.00 | 0.00 | 42 | 1016.1 |
| 20260503174021 | 55 | 309 | 3.5 | 9.6 | 0.00 | 0.00 | 0.00 | 45 | 1016.0 |
| 20260503173518 | 54 | 292 | 4.3 | 9.6 | 0.00 | 0.00 | 0.00 | 43 | 1016.1 |
| 20260503173037 | 55 | 285 | 3.5 | 8.7 | 0.00 | 0.00 | 0.00 | 41 | 1016.2 |
| 20260503172519 | 55 | 313 | 1.7 | 10.4 | 0.00 | 0.00 | 0.00 | 42 | 1016.1 |
| 20260503172017 | 55 | 269 | 3.5 | 13.0 | 0.00 | 0.00 | 0.00 | 43 | 1016.3 |
| 20260503171602 | 54 | 233 | 4.3 | 13.0 | 0.00 | 0.00 | 0.00 | 40 | 1016.3 |
| 20260503171021 | 55 | 189 | 3.5 | 8.7 | 0.00 | 0.00 | 0.00 | 40 | 1016.1 |
| 20260503170520 | 54 | 8 | 2.6 | 11.3 | 0.00 | 0.00 | 0.00 | 40 | 1016.4 |
| 20260503150521 | 50 | 233 | 2.6 | 7.8 | 0.00 | 0.00 | 0.00 | 48 | 1017.4 |
| 20260503131018 | 44 | 269 | 0.9 | 4.3 | 0.00 | 0.00 | 0.00 | 70 | 1017.6 |
| 20260503130520 | 43 | 200 | 0.9 | 4.3 | 0.00 | 0.00 | 0.00 | 73 | 1017.6 |
| 20260503110519 | 31 | 0 | 0.0 | 0.0 | 0.00 | 0.00 | 0.00 | 95 | 1017.1 |
| 20260503081539 | 32 | 0 | 0.0 | 0.0 | 0.00 | 0.00 | 0.00 | 93 | 1016.0 |
| 20260503081018 | 32 | 0 | 0.0 | 0.0 | 0.00 | 0.00 | 0.00 | 93 | 1016.0 |
| 20260503080522 | 32 | 0 | 0.0 | 0.0 | 0.00 | 0.00 | 0.00 | 93 | 1016.0 |
| 20260503072521 | 32 | 0 | 0.0 | 0.0 | 0.00 | 0.00 | 0.00 | 94 | 1015.9 |
| 20260503072018 | 32 | 0 | 0.0 | 0.0 | 0.00 | 0.00 | 0.00 | 94 | 1015.8 |
| 20260503071558 | 32 | 0 | 0.0 | 0.0 | 0.00 | 0.00 | 0.00 | 93 | 1015.8 |
| 20260503071020 | 32 | 0 | 0.0 | 0.0 | 0.00 | 0.00 | 0.00 | 94 | 1015.8 |
| 20260503070517 | 32 | 0 | 0.0 | 0.0 | 0.00 | 0.00 | 0.00 | 94 | 1015.7 |
| 20260503055017 | 30 | 0 | 0.0 | 0.0 | 0.00 | 0.00 | 0.00 | 92 | 1015.8 |
| 20260503054548 | 30 | 0 | 0.0 | 0.0 | 0.00 | 0.00 | 0.00 | 92 | 1015.8 |
| 20260503054021 | 30 | 0 | 0.0 | 0.0 | 0.00 | 0.00 | 0.00 | 92 | 1015.8 |
| 20260503053518 | 30 | 0 | 0.0 | 0.0 | 0.00 | 0.00 | 0.00 | 92 | 1015.9 |
| 20260503053040 | 30 | 0 | 0.0 | 0.0 | 0.00 | 0.00 | 0.00 | 92 | 1015.9 |
| 20260503052521 | 31 | 0 | 0.0 | 0.0 | 0.00 | 0.00 | 0.00 | 92 | 1015.9 |
| 20260503052018 | 31 | 0 | 0.0 | 0.0 | 0.00 | 0.00 | 0.00 | 92 | 1016.0 |
| 20260503051534 | 31 | 0 | 0.0 | 0.0 | 0.00 | 0.00 | 0.00 | 92 | 1016.0 |
| 20260503051017 | 31 | 0 | 0.0 | 0.0 | 0.00 | 0.00 | 0.00 | 92 | 1016.0 |
| 20260503050522 | 31 | 0 | 0.0 | 0.0 | 0.00 | 0.00 | 0.00 | 92 | 1016.1 |
| 20260503050045 | 31 | 0 | 0.0 | 0.0 | 0.00 | 0.00 | 0.00 | 91 | 1016.1 |
| 20260503045520 | 32 | 0 | 0.0 | 0.0 | 0.00 | 0.00 | 0.00 | 91 | 1016.2 |
| 20260503045017 | 32 | 0 | 0.0 | 0.0 | 0.00 | 0.00 | 0.00 | 91 | 1016.1 |
| 20260503044549 | 32 | 0 | 0.0 | 0.0 | 0.00 | 0.00 | 0.00 | 91 | 1016.1 |
| 20260503044017 | 32 | 0 | 0.0 | 0.0 | 0.00 | 0.00 | 0.00 | 91 | 1016.1 |
| 20260503043519 | 32 | 0 | 0.0 | 0.0 | 0.00 | 0.00 | 0.00 | 91 | 1016.1 |
| 20260503043045 | 33 | 0 | 0.0 | 0.0 | 0.00 | 0.00 | 0.00 | 91 | 1016.1 |
| 20260503042518 | 33 | 0 | 0.0 | 0.0 | 0.00 | 0.00 | 0.00 | 90 | 1016.1 |